DELTA 1 DEB, 10655

Orbit data source: Space-Track

DELTA 1 DEB, 10655 is space debris in SSO originally from a launch on Thu, 29 Jul 1976 UTC launched from the Air Force Western Test Range (AFWTR). Debris objects in space refer to the collection of defunct objects orbiting the Earth. Examples of debris include non-operational satellites, rocket bodies, and fragments generated from explosions, collisions, or faulty payload assembly.

Loading next visibility...
Identifier
10655, 1976-077R
Orbit
SSO
Country
Flag of USUS
Related business
Manufacturer
Unknown
Mission
Spacecraft
Bus & Motor
Unknown
Mass
Unknown
Launch date (UTC)
1976-07-29 (50 years ago)
Launch vehicle
Unknown
Launch site
Air Force Western Test Range (AFWTR)
Object type
Payload
Rocket body
Debris
Shape & HBR
Unknown shape, 0.2 m
Radar Cross Section
Medium (>0.1 m² and <1 m²)

Expand to show TLE details & history
Last TLE update: 15 hours ago

TLE from 15 hours ago
0 DELTA 1 DEB
1 10655U 76077R   26107.21869737 -.00000042  00000-0  34291-4 0  9993
2 10655 102.7588 202.6526 0274893 218.0912 168.5890 12.11382623198878
Epoch: 2026-04-17T05:14Z
TLE epoch observation values (Epoch: 2026-04-17T05:14:55.452Z)
Latitude
26.58934°
Longitude
-87.91076°
Altitude
1,849.21 km
Speed
6.869 km/s
True Right ascension
13h 04m 42s
True Declination
26° 28' 13"
Sunlit
Object was in full shadow at epoch
Visualization orbit readout
Latitude
Unknown
Longitude
Unknown
Altitude
Unknown
Speed
Unknown
Apparent Right ascension
Unknown
Apparent Declination
Unknown
Sunlit
N/A
Visualization observer readout
Local Sidereal Time
02:29:57
Azimuth
Unknown
Elevation
Unknown
Doppler factor
Unknown
Orbital elements
Apogee altitude
1,848.034 km
Perigee altitude
1,407.871 km
Semi-major axis
8,006.09 km
Eccentricity
0.02749
Inclination
102.7588°
RAAN
202.6526°
Arg. of periapsis
218.0912°
True anomaly
169.19188°
Mean anomaly
168.589°
Eccentric anomaly
168.89243°
Mean motion
3.02979 °/min
Orbital period
118.82 mins
BSTAR
0.000034291
Loading maneuver chart data...
Computing Atmospheric mass density...
Loading historical data...
Loading historical data...
Loading historical data...
Loading historical data...
Loading historical data...
Loading historical data...
Loading historical data...

Documentation

Showing up to 5 results
|